owner,sensor,date,latitude,longitude,vertical_datum,sea_water_practical_salinity,qcFlag 
TCOON,ioos:station:TCOON:043:1,2013-02-01T00:00:00Z,27.8838,-97.5332,0.0,0.4,1111122 
TCOON,ioos:station:TCOON:043:1,2013-02-01T01:00:00Z,27.8838,-97.5332,0.0,0.4,1111122 
TCOON,ioos:station:TCOON:043:1,2013-02-01T01:30:00Z,27.8838,-97.5332,0.0,0.2,1111122 
TCOON,ioos:station:TCOON:043:1,2013-02-01T03:00:00Z,27.8838,-97.5332,0.0,0.1,1111122 
TCOON,ioos:station:TCOON:043:1,2013-02-01T04:00:00Z,27.8838,-97.5332,0.0,0.1,1111122 
TCOON,ioos:station:TCOON:043:1,2013-02-01T04:30:00Z,27.8838,-97.5332,0.0,0.1,1111122 
TCOON,ioos:station:TCOON:043:1,2013-02-01T05:00:00Z,27.8838,-97.5332,0.0,0.1,1111122 
TCOON,ioos:station:TCOON:043:1,2013-02-01T05:30:00Z,27.8838,-97.5332,0.0,0.1,1111122 
TCOON,ioos:station:TCOON:043:1,2013-02-01T06:00:00Z,27.8838,-97.5332,0.0,0.1,1111122 
TCOON,ioos:station:TCOON:043:1,2013-02-01T06:30:00Z,27.8838,-97.5332,0.0,0.2,1111122 
TCOON,ioos:station:TCOON:043:1,2013-02-01T07:00:00Z,27.8838,-97.5332,0.0,0.2,1111122 
TCOON,ioos:station:TCOON:043:1,2013-02-01T08:30:00Z,27.8838,-97.5332,0.0,0.2,1111122 
TCOON,ioos:station:TCOON:043:1,2013-02-01T10:30:00Z,27.8838,-97.5332,0.0,0.1,1111122 
TCOON,ioos:station:TCOON:043:1,2013-02-01T11:00:00Z,27.8838,-97.5332,0.0,0.2,1111122 
TCOON,ioos:station:TCOON:043:1,2013-02-01T12:00:00Z,27.8838,-97.5332,0.0,0.2,1111122 
TCOON,ioos:station:TCOON:043:1,2013-02-01T13:00:00Z,27.8838,-97.5332,0.0,0.1,1111122 
TCOON,ioos:station:TCOON:043:1,2013-02-01T13:30:00Z,27.8838,-97.5332,0.0,0.1,1111122 
TCOON,ioos:station:TCOON:043:1,2013-02-01T14:00:00Z,27.8838,-97.5332,0.0,0.1,1111122 
TCOON,ioos:station:TCOON:043:1,2013-02-01T15:30:00Z,27.8838,-97.5332,0.0,0.1,1111122 
TCOON,ioos:station:TCOON:043:1,2013-02-01T16:00:00Z,27.8838,-97.5332,0.0,0.3,1111122 
TCOON,ioos:station:TCOON:043:1,2013-02-01T17:00:00Z,27.8838,-97.5332,0.0,39.0,1111122 
TCOON,ioos:station:TCOON:043:1,2013-02-01T18:00:00Z,27.8838,-97.5332,0.0,39.6,1111122 
TCOON,ioos:station:TCOON:043:1,2013-02-01T19:00:00Z,27.8838,-97.5332,0.0,40.9,1111122 
TCOON,ioos:station:TCOON:043:1,2013-02-01T19:30:00Z,27.8838,-97.5332,0.0,40.7,1111122 
TCOON,ioos:station:TCOON:043:1,2013-02-01T20:30:00Z,27.8838,-97.5332,0.0,40.7,1111122 
TCOON,ioos:station:TCOON:043:1,2013-02-01T21:30:00Z,27.8838,-97.5332,0.0,40.6,1111122 
TCOON,ioos:station:TCOON:043:1,2013-02-01T22:30:00Z,27.8838,-97.5332,0.0,40.1,1111122 
TCOON,ioos:station:TCOON:043:1,2013-02-01T23:00:00Z,27.8838,-97.5332,0.0,39.6,1111122 
TCOON,ioos:station:TCOON:043:1,2013-02-02T00:00:00Z,27.8838,-97.5332,0.0,39.6,1111122 
TCOON,ioos:station:TCOON:043:1,2013-02-02T00:30:00Z,27.8838,-97.5332,0.0,40.1,1111122 
TCOON,ioos:station:TCOON:043:1,2013-02-02T01:00:00Z,27.8838,-97.5332,0.0,40.3,1111122 
TCOON,ioos:station:TCOON:043:1,2013-02-02T01:30:00Z,27.8838,-97.5332,0.0,40.3,1111122 
TCOON,ioos:station:TCOON:043:1,2013-02-02T02:30:00Z,27.8838,-97.5332,0.0,40.3,1111122 
TCOON,ioos:station:TCOON:043:1,2013-02-02T03:30:00Z,27.8838,-97.5332,0.0,40.5,1111122 
TCOON,ioos:station:TCOON:043:1,2013-02-02T05:00:00Z,27.8838,-97.5332,0.0,41.0,1111122 
TCOON,ioos:station:TCOON:043:1,2013-02-02T05:30:00Z,27.8838,-97.5332,0.0,41.3,1111122 
TCOON,ioos:station:TCOON:043:1,2013-02-02T06:30:00Z,27.8838,-97.5332,0.0,42.0,1111122 
TCOON,ioos:station:TCOON:043:1,2013-02-02T07:30:00Z,27.8838,-97.5332,0.0,42.2,1111122 
TCOON,ioos:station:TCOON:043:1,2013-02-02T08:30:00Z,27.8838,-97.5332,0.0,42.3,1111122 
TCOON,ioos:station:TCOON:043:1,2013-02-02T09:00:00Z,27.8838,-97.5332,0.0,42.2,1111122 
TCOON,ioos:station:TCOON:043:1,2013-02-02T10:00:00Z,27.8838,-97.5332,0.0,41.3,1111122 
TCOON,ioos:station:TCOON:043:1,2013-02-02T10:30:00Z,27.8838,-97.5332,0.0,41.0,1111122 
TCOON,ioos:station:TCOON:043:1,2013-02-02T11:30:00Z,27.8838,-97.5332,0.0,40.6,1111122 
TCOON,ioos:station:TCOON:043:1,2013-02-02T12:00:00Z,27.8838,-97.5332,0.0,40.6,1111122 
TCOON,ioos:station:TCOON:043:1,2013-02-02T12:30:00Z,27.8838,-97.5332,0.0,40.6,1111122 
TCOON,ioos:station:TCOON:043:1,2013-02-02T13:00:00Z,27.8838,-97.5332,0.0,40.8,1111122 
TCOON,ioos:station:TCOON:043:1,2013-02-02T14:00:00Z,27.8838,-97.5332,0.0,40.3,1111122 
TCOON,ioos:station:TCOON:043:1,2013-02-02T14:30:00Z,27.8838,-97.5332,0.0,40.3,1111122 
TCOON,ioos:station:TCOON:043:1,2013-02-02T15:00:00Z,27.8838,-97.5332,0.0,40.4,1111122 
TCOON,ioos:station:TCOON:043:1,2013-02-02T17:00:00Z,27.8838,-97.5332,0.0,40.7,1111122 
TCOON,ioos:station:TCOON:043:1,2013-02-02T17:30:00Z,27.8838,-97.5332,0.0,40.6,1111122 
TCOON,ioos:station:TCOON:043:1,2013-02-02T18:00:00Z,27.8838,-97.5332,0.0,40.6,1111122 
TCOON,ioos:station:TCOON:043:1,2013-02-02T18:30:00Z,27.8838,-97.5332,0.0,40.5,1111122 
TCOON,ioos:station:TCOON:043:1,2013-02-02T19:30:00Z,27.8838,-97.5332,0.0,40.0,1111122 
TCOON,ioos:station:TCOON:043:1,2013-02-02T20:30:00Z,27.8838,-97.5332,0.0,40.2,1111122 
TCOON,ioos:station:TCOON:043:1,2013-02-02T21:00:00Z,27.8838,-97.5332,0.0,40.1,1111122 
TCOON,ioos:station:TCOON:043:1,2013-02-02T21:30:00Z,27.8838,-97.5332,0.0,40.1,1111122 
TCOON,ioos:station:TCOON:043:1,2013-02-02T22:00:00Z,27.8838,-97.5332,0.0,40.6,1111122 
TCOON,ioos:station:TCOON:043:1,2013-02-02T23:00:00Z,27.8838,-97.5332,0.0,42.0,1111122 
TCOON,ioos:station:TCOON:043:1,2013-02-03T00:00:00Z,27.8838,-97.5332,0.0,42.1,1111122 
TCOON,ioos:station:TCOON:043:1,2013-02-03T02:30:00Z,27.8838,-97.5332,0.0,42.3,1111122 
TCOON,ioos:station:TCOON:043:1,2013-02-03T03:30:00Z,27.8838,-97.5332,0.0,42.3,1111122 
TCOON,ioos:station:TCOON:043:1,2013-02-03T04:30:00Z,27.8838,-97.5332,0.0,42.3,1111122 
TCOON,ioos:station:TCOON:043:1,2013-02-03T05:00:00Z,27.8838,-97.5332,0.0,42.4,1111122 
TCOON,ioos:station:TCOON:043:1,2013-02-03T05:30:00Z,27.8838,-97.5332,0.0,42.5,1111122 
TCOON,ioos:station:TCOON:043:1,2013-02-03T06:00:00Z,27.8838,-97.5332,0.0,42.6,1111122 
TCOON,ioos:station:TCOON:043:1,2013-02-03T07:00:00Z,27.8838,-97.5332,0.0,42.6,1111122 
TCOON,ioos:station:TCOON:043:1,2013-02-03T07:30:00Z,27.8838,-97.5332,0.0,42.6,1111122 
TCOON,ioos:station:TCOON:043:1,2013-02-03T08:30:00Z,27.8838,-97.5332,0.0,42.6,1111122 
TCOON,ioos:station:TCOON:043:1,2013-02-03T09:30:00Z,27.8838,-97.5332,0.0,42.6,1111122 
TCOON,ioos:station:TCOON:043:1,2013-02-03T10:00:00Z,27.8838,-97.5332,0.0,42.5,1111122 
TCOON,ioos:station:TCOON:043:1,2013-02-03T10:30:00Z,27.8838,-97.5332,0.0,42.6,1111122 
TCOON,ioos:station:TCOON:043:1,2013-02-03T11:00:00Z,27.8838,-97.5332,0.0,42.7,1111122 
TCOON,ioos:station:TCOON:043:1,2013-02-03T11:30:00Z,27.8838,-97.5332,0.0,42.6,1111122 
TCOON,ioos:station:TCOON:043:1,2013-02-03T12:30:00Z,27.8838,-97.5332,0.0,42.6,1111122 
TCOON,ioos:station:TCOON:043:1,2013-02-03T15:00:00Z,27.8838,-97.5332,0.0,42.3,1111122 
TCOON,ioos:station:TCOON:043:1,2013-02-03T16:00:00Z,27.8838,-97.5332,0.0,41.5,1111122 
TCOON,ioos:station:TCOON:043:1,2013-02-03T17:30:00Z,27.8838,-97.5332,0.0,40.9,1111122 
TCOON,ioos:station:TCOON:043:1,2013-02-03T18:30:00Z,27.8838,-97.5332,0.0,40.8,1111122 
TCOON,ioos:station:TCOON:043:1,2013-02-03T19:00:00Z,27.8838,-97.5332,0.0,40.8,1111122 
TCOON,ioos:station:TCOON:043:1,2013-02-03T21:00:00Z,27.8838,-97.5332,0.0,40.5,1111122 
TCOON,ioos:station:TCOON:043:1,2013-02-03T21:30:00Z,27.8838,-97.5332,0.0,40.7,1111122 
TCOON,ioos:station:TCOON:043:1,2013-02-03T22:00:00Z,27.8838,-97.5332,0.0,41.0,1111122 
TCOON,ioos:station:TCOON:043:1,2013-02-03T23:00:00Z,27.8838,-97.5332,0.0,41.7,1111122 
TCOON,ioos:station:TCOON:043:1,2013-02-04T00:00:00Z,27.8838,-97.5332,0.0,42.0,1111122 
TCOON,ioos:station:TCOON:043:1,2013-02-04T00:30:00Z,27.8838,-97.5332,0.0,42.1,1111122 
TCOON,ioos:station:TCOON:043:1,2013-02-04T01:30:00Z,27.8838,-97.5332,0.0,41.5,1111122 
TCOON,ioos:station:TCOON:043:1,2013-02-04T03:00:00Z,27.8838,-97.5332,0.0,41.9,1111122 
TCOON,ioos:station:TCOON:043:1,2013-02-04T03:30:00Z,27.8838,-97.5332,0.0,40.7,1111122 
TCOON,ioos:station:TCOON:043:1,2013-02-04T05:00:00Z,27.8838,-97.5332,0.0,40.1,1111122 
TCOON,ioos:station:TCOON:043:1,2013-02-04T05:30:00Z,27.8838,-97.5332,0.0,42.3,1111122 
TCOON,ioos:station:TCOON:043:1,2013-02-04T06:00:00Z,27.8838,-97.5332,0.0,41.4,1111122 
TCOON,ioos:station:TCOON:043:1,2013-02-04T07:00:00Z,27.8838,-97.5332,0.0,42.6,1111122 
TCOON,ioos:station:TCOON:043:1,2013-02-04T08:00:00Z,27.8838,-97.5332,0.0,42.6,1111122 
TCOON,ioos:station:TCOON:043:1,2013-02-04T09:00:00Z,27.8838,-97.5332,0.0,42.6,1111122 
TCOON,ioos:station:TCOON:043:1,2013-02-04T10:30:00Z,27.8838,-97.5332,0.0,42.7,1111122 
TCOON,ioos:station:TCOON:043:1,2013-02-04T11:00:00Z,27.8838,-97.5332,0.0,42.9,1111122 
TCOON,ioos:station:TCOON:043:1,2013-02-04T12:00:00Z,27.8838,-97.5332,0.0,42.6,1111122 
TCOON,ioos:station:TCOON:043:1,2013-02-04T13:00:00Z,27.8838,-97.5332,0.0,42.6,1111122 
TCOON,ioos:station:TCOON:043:1,2013-02-04T13:30:00Z,27.8838,-97.5332,0.0,42.2,1111122 
TCOON,ioos:station:TCOON:043:1,2013-02-04T15:00:00Z,27.8838,-97.5332,0.0,42.7,1111122 
TCOON,ioos:station:TCOON:043:1,2013-02-04T15:30:00Z,27.8838,-97.5332,0.0,42.7,1111122 
TCOON,ioos:station:TCOON:043:1,2013-02-04T16:30:00Z,27.8838,-97.5332,0.0,42.6,1111122 
TCOON,ioos:station:TCOON:043:1,2013-02-04T17:00:00Z,27.8838,-97.5332,0.0,41.6,1111122 
TCOON,ioos:station:TCOON:043:1,2013-02-04T19:00:00Z,27.8838,-97.5332,0.0,42.4,1111122 
TCOON,ioos:station:TCOON:043:1,2013-02-04T20:30:00Z,27.8838,-97.5332,0.0,42.4,1111122 
TCOON,ioos:station:TCOON:043:1,2013-02-04T21:00:00Z,27.8838,-97.5332,0.0,42.1,1111122 
TCOON,ioos:station:TCOON:043:1,2013-02-04T22:00:00Z,27.8838,-97.5332,0.0,42.3,1111122 
TCOON,ioos:station:TCOON:043:1,2013-02-04T22:30:00Z,27.8838,-97.5332,0.0,42.3,1111122 
TCOON,ioos:station:TCOON:043:1,2013-02-04T23:00:00Z,27.8838,-97.5332,0.0,42.2,1111122 
TCOON,ioos:station:TCOON:043:1,2013-02-05T00:00:00Z,27.8838,-97.5332,0.0,42.0,1111122 
TCOON,ioos:station:TCOON:043:1,2013-02-05T01:30:00Z,27.8838,-97.5332,0.0,41.9,1111122 
TCOON,ioos:station:TCOON:043:1,2013-02-05T02:00:00Z,27.8838,-97.5332,0.0,41.9,1111122 
TCOON,ioos:station:TCOON:043:1,2013-02-05T03:00:00Z,27.8838,-97.5332,0.0,42.2,1111122 
TCOON,ioos:station:TCOON:043:1,2013-02-05T04:00:00Z,27.8838,-97.5332,0.0,42.4,1111122 
TCOON,ioos:station:TCOON:043:1,2013-02-05T04:30:00Z,27.8838,-97.5332,0.0,42.4,1111122 
TCOON,ioos:station:TCOON:043:1,2013-02-05T06:00:00Z,27.8838,-97.5332,0.0,42.4,1111122 
TCOON,ioos:station:TCOON:043:1,2013-02-05T06:30:00Z,27.8838,-97.5332,0.0,42.4,1111122 
TCOON,ioos:station:TCOON:043:1,2013-02-05T07:00:00Z,27.8838,-97.5332,0.0,42.3,1111122 
TCOON,ioos:station:TCOON:043:1,2013-02-05T08:00:00Z,27.8838,-97.5332,0.0,42.4,1111122 
TCOON,ioos:station:TCOON:043:1,2013-02-05T08:30:00Z,27.8838,-97.5332,0.0,42.4,1111122 
TCOON,ioos:station:TCOON:043:1,2013-02-05T09:00:00Z,27.8838,-97.5332,0.0,42.4,1111122 
TCOON,ioos:station:TCOON:043:1,2013-02-05T09:30:00Z,27.8838,-97.5332,0.0,42.4,1111122 
TCOON,ioos:station:TCOON:043:1,2013-02-05T10:00:00Z,27.8838,-97.5332,0.0,42.4,1111122 
TCOON,ioos:station:TCOON:043:1,2013-02-05T10:30:00Z,27.8838,-97.5332,0.0,42.4,1111122 
TCOON,ioos:station:TCOON:043:1,2013-02-05T11:00:00Z,27.8838,-97.5332,0.0,42.5,1111122 
TCOON,ioos:station:TCOON:043:1,2013-02-05T12:00:00Z,27.8838,-97.5332,0.0,42.6,1111122 
TCOON,ioos:station:TCOON:043:1,2013-02-05T13:00:00Z,27.8838,-97.5332,0.0,42.7,1111122 
TCOON,ioos:station:TCOON:043:1,2013-02-05T13:30:00Z,27.8838,-97.5332,0.0,43.0,1111122 
TCOON,ioos:station:TCOON:043:1,2013-02-05T14:30:00Z,27.8838,-97.5332,0.0,43.4,1111122 
TCOON,ioos:station:TCOON:043:1,2013-02-05T15:30:00Z,27.8838,-97.5332,0.0,43.5,1111122 
TCOON,ioos:station:TCOON:043:1,2013-02-05T16:00:00Z,27.8838,-97.5332,0.0,42.2,1111122 
TCOON,ioos:station:TCOON:043:1,2013-02-05T17:00:00Z,27.8838,-97.5332,0.0,43.2,1111122 
TCOON,ioos:station:TCOON:043:1,2013-02-05T18:30:00Z,27.8838,-97.5332,0.0,42.5,1111122 
TCOON,ioos:station:TCOON:043:1,2013-02-05T19:30:00Z,27.8838,-97.5332,0.0,42.7,1111122 
TCOON,ioos:station:TCOON:043:1,2013-02-05T20:30:00Z,27.8838,-97.5332,0.0,42.4,1111122 
TCOON,ioos:station:TCOON:043:1,2013-02-05T21:30:00Z,27.8838,-97.5332,0.0,42.2,1111122 
TCOON,ioos:station:TCOON:043:1,2013-02-05T22:00:00Z,27.8838,-97.5332,0.0,42.3,1111122 
TCOON,ioos:station:TCOON:043:1,2013-02-05T23:00:00Z,27.8838,-97.5332,0.0,42.4,1111122 
TCOON,ioos:station:TCOON:043:1,2013-02-06T00:00:00Z,27.8838,-97.5332,0.0,42.6,1111122 
TCOON,ioos:station:TCOON:043:1,2013-02-06T00:30:00Z,27.8838,-97.5332,0.0,42.8,1111122 
TCOON,ioos:station:TCOON:043:1,2013-02-06T01:00:00Z,27.8838,-97.5332,0.0,42.3,1111122 
TCOON,ioos:station:TCOON:043:1,2013-02-06T02:30:00Z,27.8838,-97.5332,0.0,40.7,1111122 
TCOON,ioos:station:TCOON:043:1,2013-02-06T05:00:00Z,27.8838,-97.5332,0.0,42.0,1111122 
TCOON,ioos:station:TCOON:043:1,2013-02-06T06:30:00Z,27.8838,-97.5332,0.0,42.0,1111122 
TCOON,ioos:station:TCOON:043:1,2013-02-06T07:00:00Z,27.8838,-97.5332,0.0,41.7,1111122 
TCOON,ioos:station:TCOON:043:1,2013-02-06T08:00:00Z,27.8838,-97.5332,0.0,41.9,1111122 
TCOON,ioos:station:TCOON:043:1,2013-02-06T08:30:00Z,27.8838,-97.5332,0.0,41.9,1111122 
TCOON,ioos:station:TCOON:043:1,2013-02-06T09:00:00Z,27.8838,-97.5332,0.0,41.9,1111122 
TCOON,ioos:station:TCOON:043:1,2013-02-06T09:30:00Z,27.8838,-97.5332,0.0,41.9,1111122 
TCOON,ioos:station:TCOON:043:1,2013-02-06T10:00:00Z,27.8838,-97.5332,0.0,41.9,1111122 
TCOON,ioos:station:TCOON:043:1,2013-02-06T11:00:00Z,27.8838,-97.5332,0.0,41.8,1111122 
TCOON,ioos:station:TCOON:043:1,2013-02-06T11:30:00Z,27.8838,-97.5332,0.0,41.8,1111122 
TCOON,ioos:station:TCOON:043:1,2013-02-06T12:00:00Z,27.8838,-97.5332,0.0,41.8,1111122 
TCOON,ioos:station:TCOON:043:1,2013-02-06T13:00:00Z,27.8838,-97.5332,0.0,41.9,1111122 
TCOON,ioos:station:TCOON:043:1,2013-02-06T13:30:00Z,27.8838,-97.5332,0.0,41.9,1111122 
TCOON,ioos:station:TCOON:043:1,2013-02-06T15:30:00Z,27.8838,-97.5332,0.0,42.0,1111122 
TCOON,ioos:station:TCOON:043:1,2013-02-06T16:00:00Z,27.8838,-97.5332,0.0,41.9,1111122 
TCOON,ioos:station:TCOON:043:1,2013-02-06T17:00:00Z,27.8838,-97.5332,0.0,42.1,1111122 
TCOON,ioos:station:TCOON:043:1,2013-02-06T18:00:00Z,27.8838,-97.5332,0.0,42.0,1111122 
TCOON,ioos:station:TCOON:043:1,2013-02-06T19:00:00Z,27.8838,-97.5332,0.0,41.2,1111122 
TCOON,ioos:station:TCOON:043:1,2013-02-06T19:30:00Z,27.8838,-97.5332,0.0,41.1,1111122 
TCOON,ioos:station:TCOON:043:1,2013-02-06T20:30:00Z,27.8838,-97.5332,0.0,40.7,1111122 
TCOON,ioos:station:TCOON:043:1,2013-02-06T21:00:00Z,27.8838,-97.5332,0.0,40.5,1111122 
TCOON,ioos:station:TCOON:043:1,2013-02-06T21:30:00Z,27.8838,-97.5332,0.0,40.5,1111122 
TCOON,ioos:station:TCOON:043:1,2013-02-06T23:00:00Z,27.8838,-97.5332,0.0,40.7,1111122 
TCOON,ioos:station:TCOON:043:1,2013-02-07T00:00:00Z,27.8838,-97.5332,0.0,41.2,1111122 
TCOON,ioos:station:TCOON:043:1,2013-02-07T00:30:00Z,27.8838,-97.5332,0.0,41.5,1111122 
TCOON,ioos:station:TCOON:043:1,2013-02-07T01:30:00Z,27.8838,-97.5332,0.0,40.3,1111122 
TCOON,ioos:station:TCOON:043:1,2013-02-07T02:30:00Z,27.8838,-97.5332,0.0,40.1,1111122 
TCOON,ioos:station:TCOON:043:1,2013-02-07T04:30:00Z,27.8838,-97.5332,0.0,40.7,1111122 
TCOON,ioos:station:TCOON:043:1,2013-02-07T05:00:00Z,27.8838,-97.5332,0.0,39.4,1111122 
TCOON,ioos:station:TCOON:043:1,2013-02-07T05:30:00Z,27.8838,-97.5332,0.0,39.6,1111122 
TCOON,ioos:station:TCOON:043:1,2013-02-07T06:00:00Z,27.8838,-97.5332,0.0,39.2,1111122 
TCOON,ioos:station:TCOON:043:1,2013-02-07T07:30:00Z,27.8838,-97.5332,0.0,39.3,1111122 
TCOON,ioos:station:TCOON:043:1,2013-02-07T08:00:00Z,27.8838,-97.5332,0.0,38.8,1111122 
TCOON,ioos:station:TCOON:043:1,2013-02-07T08:30:00Z,27.8838,-97.5332,0.0,39.7,1111122 
TCOON,ioos:station:TCOON:043:1,2013-02-07T09:00:00Z,27.8838,-97.5332,0.0,39.4,1111122 
TCOON,ioos:station:TCOON:043:1,2013-02-07T10:00:00Z,27.8838,-97.5332,0.0,39.2,1111122 
TCOON,ioos:station:TCOON:043:1,2013-02-07T10:30:00Z,27.8838,-97.5332,0.0,40.9,1111122 
TCOON,ioos:station:TCOON:043:1,2013-02-07T11:00:00Z,27.8838,-97.5332,0.0,39.3,1111122 
TCOON,ioos:station:TCOON:043:1,2013-02-07T11:30:00Z,27.8838,-97.5332,0.0,40.9,1111122 
TCOON,ioos:station:TCOON:043:1,2013-02-07T12:00:00Z,27.8838,-97.5332,0.0,39.8,1111122 
TCOON,ioos:station:TCOON:043:1,2013-02-07T12:30:00Z,27.8838,-97.5332,0.0,40.9,1111122 
TCOON,ioos:station:TCOON:043:1,2013-02-07T13:30:00Z,27.8838,-97.5332,0.0,40.9,1111122 
TCOON,ioos:station:TCOON:043:1,2013-02-07T14:30:00Z,27.8838,-97.5332,0.0,40.9,1111122 
TCOON,ioos:station:TCOON:043:1,2013-02-07T15:00:00Z,27.8838,-97.5332,0.0,40.9,1111122 
TCOON,ioos:station:TCOON:043:1,2013-02-07T15:30:00Z,27.8838,-97.5332,0.0,41.1,1111122 
TCOON,ioos:station:TCOON:043:1,2013-02-07T18:30:00Z,27.8838,-97.5332,0.0,40.9,1111122 
TCOON,ioos:station:TCOON:043:1,2013-02-07T19:30:00Z,27.8838,-97.5332,0.0,40.8,1111122 
TCOON,ioos:station:TCOON:043:1,2013-02-07T20:00:00Z,27.8838,-97.5332,0.0,40.7,1111122 
TCOON,ioos:station:TCOON:043:1,2013-02-07T21:00:00Z,27.8838,-97.5332,0.0,40.7,1111122 
TCOON,ioos:station:TCOON:043:1,2013-02-07T22:00:00Z,27.8838,-97.5332,0.0,40.7,1111122 
TCOON,ioos:station:TCOON:043:1,2013-02-07T23:00:00Z,27.8838,-97.5332,0.0,40.6,1111122 
TCOON,ioos:station:TCOON:043:1,2013-02-07T23:30:00Z,27.8838,-97.5332,0.0,40.9,1111122 
TCOON,ioos:station:TCOON:043:1,2013-02-08T02:00:00Z,27.8838,-97.5332,0.0,38.9,1111122 
TCOON,ioos:station:TCOON:043:1,2013-02-08T03:00:00Z,27.8838,-97.5332,0.0,39.6,1111122 
TCOON,ioos:station:TCOON:043:1,2013-02-08T04:00:00Z,27.8838,-97.5332,0.0,41.3,1111122 
TCOON,ioos:station:TCOON:043:1,2013-02-08T05:00:00Z,27.8838,-97.5332,0.0,40.0,1111122 
TCOON,ioos:station:TCOON:043:1,2013-02-08T06:00:00Z,27.8838,-97.5332,0.0,39.7,1111122 
TCOON,ioos:station:TCOON:043:1,2013-02-08T06:30:00Z,27.8838,-97.5332,0.0,40.2,1111122 
TCOON,ioos:station:TCOON:043:1,2013-02-08T07:00:00Z,27.8838,-97.5332,0.0,40.4,1111122 
TCOON,ioos:station:TCOON:043:1,2013-02-08T07:30:00Z,27.8838,-97.5332,0.0,39.5,1111122 
TCOON,ioos:station:TCOON:043:1,2013-02-08T08:00:00Z,27.8838,-97.5332,0.0,41.3,1111122 
TCOON,ioos:station:TCOON:043:1,2013-02-08T08:30:00Z,27.8838,-97.5332,0.0,39.8,1111122 
TCOON,ioos:station:TCOON:043:1,2013-02-08T09:00:00Z,27.8838,-97.5332,0.0,41.4,1111122 
TCOON,ioos:station:TCOON:043:1,2013-02-08T10:00:00Z,27.8838,-97.5332,0.0,41.4,1111122 
TCOON,ioos:station:TCOON:043:1,2013-02-08T12:00:00Z,27.8838,-97.5332,0.0,41.6,1111122 
TCOON,ioos:station:TCOON:043:1,2013-02-08T12:30:00Z,27.8838,-97.5332,0.0,41.5,1111122 
TCOON,ioos:station:TCOON:043:1,2013-02-08T13:30:00Z,27.8838,-97.5332,0.0,41.5,1111122 
TCOON,ioos:station:TCOON:043:1,2013-02-08T14:00:00Z,27.8838,-97.5332,0.0,41.5,1111122 
TCOON,ioos:station:TCOON:043:1,2013-02-08T15:00:00Z,27.8838,-97.5332,0.0,41.8,1111122 
TCOON,ioos:station:TCOON:043:1,2013-02-08T18:00:00Z,27.8838,-97.5332,0.0,41.4,1111122 
TCOON,ioos:station:TCOON:043:1,2013-02-08T18:30:00Z,27.8838,-97.5332,0.0,40.8,1111122 
TCOON,ioos:station:TCOON:043:1,2013-02-08T21:00:00Z,27.8838,-97.5332,0.0,41.1,1111122 
TCOON,ioos:station:TCOON:043:1,2013-02-08T22:00:00Z,27.8838,-97.5332,0.0,41.1,1111122 
TCOON,ioos:station:TCOON:043:1,2013-02-08T22:30:00Z,27.8838,-97.5332,0.0,41.1,1111122 
TCOON,ioos:station:TCOON:043:1,2013-02-08T23:30:00Z,27.8838,-97.5332,0.0,41.2,1111122 
TCOON,ioos:station:TCOON:043:1,2013-02-09T00:30:00Z,27.8838,-97.5332,0.0,41.3,1111122 
TCOON,ioos:station:TCOON:043:1,2013-02-09T01:00:00Z,27.8838,-97.5332,0.0,41.6,1111122 
TCOON,ioos:station:TCOON:043:1,2013-02-09T02:30:00Z,27.8838,-97.5332,0.0,41.4,1111122 
TCOON,ioos:station:TCOON:043:1,2013-02-09T03:00:00Z,27.8838,-97.5332,0.0,39.9,1111122 
TCOON,ioos:station:TCOON:043:1,2013-02-09T03:30:00Z,27.8838,-97.5332,0.0,41.5,1111122 
TCOON,ioos:station:TCOON:043:1,2013-02-09T04:30:00Z,27.8838,-97.5332,0.0,41.6,1111122 
TCOON,ioos:station:TCOON:043:1,2013-02-09T05:00:00Z,27.8838,-97.5332,0.0,41.6,1111122 
TCOON,ioos:station:TCOON:043:1,2013-02-09T05:30:00Z,27.8838,-97.5332,0.0,40.5,1111122 
TCOON,ioos:station:TCOON:043:1,2013-02-09T06:30:00Z,27.8838,-97.5332,0.0,40.5,1111122 
TCOON,ioos:station:TCOON:043:1,2013-02-09T07:00:00Z,27.8838,-97.5332,0.0,40.5,1111122 
TCOON,ioos:station:TCOON:043:1,2013-02-09T08:30:00Z,27.8838,-97.5332,0.0,38.7,1111122 
TCOON,ioos:station:TCOON:043:1,2013-02-09T09:30:00Z,27.8838,-97.5332,0.0,41.1,1111122 
TCOON,ioos:station:TCOON:043:1,2013-02-09T10:30:00Z,27.8838,-97.5332,0.0,40.2,1111122 
TCOON,ioos:station:TCOON:043:1,2013-02-09T11:30:00Z,27.8838,-97.5332,0.0,41.9,1111122 
TCOON,ioos:station:TCOON:043:1,2013-02-09T12:00:00Z,27.8838,-97.5332,0.0,41.9,1111122 
TCOON,ioos:station:TCOON:043:1,2013-02-09T13:30:00Z,27.8838,-97.5332,0.0,42.0,1111122 
TCOON,ioos:station:TCOON:043:1,2013-02-09T14:00:00Z,27.8838,-97.5332,0.0,42.0,1111122 
TCOON,ioos:station:TCOON:043:1,2013-02-09T14:30:00Z,27.8838,-97.5332,0.0,42.0,1111122 
TCOON,ioos:station:TCOON:043:1,2013-02-09T15:00:00Z,27.8838,-97.5332,0.0,42.0,1111122 
TCOON,ioos:station:TCOON:043:1,2013-02-09T15:30:00Z,27.8838,-97.5332,0.0,41.9,1111122 
TCOON,ioos:station:TCOON:043:1,2013-02-09T16:00:00Z,27.8838,-97.5332,0.0,41.9,1111122 
TCOON,ioos:station:TCOON:043:1,2013-02-09T17:00:00Z,27.8838,-97.5332,0.0,42.0,1111122 
TCOON,ioos:station:TCOON:043:1,2013-02-09T17:30:00Z,27.8838,-97.5332,0.0,41.9,1111122 
TCOON,ioos:station:TCOON:043:1,2013-02-09T18:30:00Z,27.8838,-97.5332,0.0,41.8,1111122 
TCOON,ioos:station:TCOON:043:1,2013-02-09T19:00:00Z,27.8838,-97.5332,0.0,41.8,1111122 
TCOON,ioos:station:TCOON:043:1,2013-02-09T20:30:00Z,27.8838,-97.5332,0.0,41.8,1111122 
TCOON,ioos:station:TCOON:043:1,2013-02-09T22:00:00Z,27.8838,-97.5332,0.0,41.6,1111122 
TCOON,ioos:station:TCOON:043:1,2013-02-09T23:00:00Z,27.8838,-97.5332,0.0,41.6,1111122 
TCOON,ioos:station:TCOON:043:1,2013-02-09T23:30:00Z,27.8838,-97.5332,0.0,41.5,1111122 
TCOON,ioos:station:TCOON:043:1,2013-02-10T00:30:00Z,27.8838,-97.5332,0.0,41.6,1111122 
TCOON,ioos:station:TCOON:043:1,2013-02-10T01:00:00Z,27.8838,-97.5332,0.0,40.3,1111122 
TCOON,ioos:station:TCOON:043:1,2013-02-10T01:30:00Z,27.8838,-97.5332,0.0,41.7,1111122 
TCOON,ioos:station:TCOON:043:1,2013-02-10T02:30:00Z,27.8838,-97.5332,0.0,40.4,1111122 
TCOON,ioos:station:TCOON:043:1,2013-02-10T03:30:00Z,27.8838,-97.5332,0.0,41.6,1111122 
TCOON,ioos:station:TCOON:043:1,2013-02-10T04:30:00Z,27.8838,-97.5332,0.0,40.4,1111122 
TCOON,ioos:station:TCOON:043:1,2013-02-10T05:00:00Z,27.8838,-97.5332,0.0,40.1,1111122 
TCOON,ioos:station:TCOON:043:1,2013-02-10T05:30:00Z,27.8838,-97.5332,0.0,40.6,1111122 
TCOON,ioos:station:TCOON:043:1,2013-02-10T07:00:00Z,27.8838,-97.5332,0.0,41.6,1111122 
TCOON,ioos:station:TCOON:043:1,2013-02-10T08:30:00Z,27.8838,-97.5332,0.0,40.2,1111122 
TCOON,ioos:station:TCOON:043:1,2013-02-10T09:00:00Z,27.8838,-97.5332,0.0,40.5,1111122 
TCOON,ioos:station:TCOON:043:1,2013-02-10T09:30:00Z,27.8838,-97.5332,0.0,40.3,1111122 
TCOON,ioos:station:TCOON:043:1,2013-02-10T10:00:00Z,27.8838,-97.5332,0.0,40.4,1111122 
TCOON,ioos:station:TCOON:043:1,2013-02-10T10:30:00Z,27.8838,-97.5332,0.0,40.0,1111122 
TCOON,ioos:station:TCOON:043:1,2013-02-10T11:00:00Z,27.8838,-97.5332,0.0,40.2,1111122 
TCOON,ioos:station:TCOON:043:1,2013-02-10T11:30:00Z,27.8838,-97.5332,0.0,41.4,1111122 
TCOON,ioos:station:TCOON:043:1,2013-02-10T12:00:00Z,27.8838,-97.5332,0.0,41.5,1111122 
TCOON,ioos:station:TCOON:043:1,2013-02-10T13:30:00Z,27.8838,-97.5332,0.0,41.5,1111122 
TCOON,ioos:station:TCOON:043:1,2013-02-10T14:00:00Z,27.8838,-97.5332,0.0,41.5,1111122 
TCOON,ioos:station:TCOON:043:1,2013-02-10T16:00:00Z,27.8838,-97.5332,0.0,41.4,1111122 
TCOON,ioos:station:TCOON:043:1,2013-02-10T17:00:00Z,27.8838,-97.5332,0.0,41.4,1111122 
TCOON,ioos:station:TCOON:043:1,2013-02-10T17:30:00Z,27.8838,-97.5332,0.0,41.3,1111122 
TCOON,ioos:station:TCOON:043:1,2013-02-10T19:00:00Z,27.8838,-97.5332,0.0,41.1,1111122 
TCOON,ioos:station:TCOON:043:1,2013-02-10T19:30:00Z,27.8838,-97.5332,0.0,41.1,1111122 
TCOON,ioos:station:TCOON:043:1,2013-02-10T20:00:00Z,27.8838,-97.5332,0.0,41.1,1111122 
TCOON,ioos:station:TCOON:043:1,2013-02-10T21:30:00Z,27.8838,-97.5332,0.0,41.2,1111122 
TCOON,ioos:station:TCOON:043:1,2013-02-10T23:30:00Z,27.8838,-97.5332,0.0,41.6,1111122 
TCOON,ioos:station:TCOON:043:1,2013-02-11T02:00:00Z,27.8838,-97.5332,0.0,41.5,1111122 